Location: Grieser Field
(39.7333°N, 81.7975°W)
Time: 22:26:54
(UTC-04:00)

MOS 1-B - Visible Passes

Search period start: 23 September 2014 00:00
Search period end: 03 October 2014 00:00
Orbit: 907 x 913 km, 99.2° (Epoch: 21 September)

Date Brightness Start Highest point End Pass type
(mag) Time Alt. Az. Time Alt. Az. Time Alt. Az.
23 Sep 6.4 03:13:54 10° NNE 03:16:18 23° NE 03:16:18 23° NE visible
23 Sep 5.5 04:55:56 10° N 04:59:33 28° NW 04:59:33 28° NW visible
24 Sep 6.3 03:19:24 10° NNE 03:21:52 24° NE 03:21:52 24° NE visible
24 Sep 5.6 05:01:40 10° N 05:05:07 26° NW 05:05:07 26° NW visible
25 Sep 6.2 03:24:55 10° NNE 03:27:26 25° NE 03:27:26 25° NE visible
25 Sep 5.7 05:07:24 10° N 05:10:41 23° NW 05:10:41 23° NW visible
26 Sep 6.2 03:30:27 10° NNE 03:33:00 26° NE 03:33:00 26° NE visible
26 Sep 5.8 05:13:09 10° NNW 05:16:15 21° NW 05:16:15 21° NW visible
27 Sep 6.1 03:36:00 10° NNE 03:38:34 27° NNE 03:38:34 27° NNE visible
27 Sep 5.9 05:18:55 10° NNW 05:21:49 20° NW 05:21:49 20° NW visible
28 Sep 6.1 03:41:33 10° NNE 03:44:08 27° NNE 03:44:08 27° NNE visible
28 Sep 6.0 05:24:43 10° NNW 05:27:23 18° NW 05:27:23 18° NW visible
29 Sep 6.0 03:47:07 10° NNE 03:49:42 28° NNE 03:49:42 28° NNE visible
29 Sep 6.1 05:30:33 10° NNW 05:32:57 16° NW 05:32:57 16° NW visible
30 Sep 6.0 03:52:42 10° NNE 03:55:16 28° NNE 03:55:16 28° NNE visible
30 Sep 6.1 05:36:25 10° NNW 05:38:31 15° NW 05:38:31 15° NW visible
01 Oct 6.0 03:58:17 10° NNE 04:00:49 27° NNE 04:00:49 27° NNE visible
01 Oct 6.2 05:42:21 10° NNW 05:44:05 13° NW 05:44:05 13° NW visible
02 Oct 6.0 04:03:53 10° NNE 04:06:23 27° N 04:06:23 27° N visible
02 Oct 6.3 05:48:23 10° NNW 05:49:38 12° NW 05:49:38 12° NW visible
